Time,TemperatureF,DewpointF,PressureIn,WindDirection,WindDirectionDegrees,WindSpeedMPH,WindSpeedGustMPH,Humidity,HourlyPrecipIn,Conditions,Clouds,dailyrainin,SoftwareType,DateUTC
2013-10-22 00:07:00,51.8,42.0,29.91,ENE,76,0.0,-999.0,69,-99.99,,,0.00,weatherlink.com 1.10,2013-10-22 04:07:00,
2013-10-22 00:22:00,50.5,42.0,29.91,ENE,75,0.0,-999.0,72,-99.99,,,0.00,weatherlink.com 1.10,2013-10-22 04:22:00,
2013-10-22 00:37:00,49.7,42.0,29.91,ENE,75,0.0,-999.0,74,-99.99,,,0.00,weatherlink.com 1.10,2013-10-22 04:37:00,
2013-10-22 00:52:00,48.3,41.0,29.90,ENE,75,0.0,-999.0,77,-99.99,,,0.00,weatherlink.com 1.10,2013-10-22 04:52:00,
2013-10-22 01:22:00,46.7,41.0,29.89,ESE,115,0.0,-999.0,81,-99.99,,,0.00,weatherlink.com 1.10,2013-10-22 05:22:00,
2013-10-22 01:37:00,46.3,41.0,29.89,ESE,115,0.0,-999.0,82,-99.99,,,0.00,weatherlink.com 1.10,2013-10-22 05:37:00,
2013-10-22 01:52:00,46.1,41.0,29.89,ESE,115,0.0,-999.0,83,-99.99,,,0.00,weatherlink.com 1.10,2013-10-22 05:52:00,
2013-10-22 02:07:00,45.8,41.0,29.88,ESE,115,0.0,-999.0,84,-99.99,,,0.00,weatherlink.com 1.10,2013-10-22 06:07:00,
2013-10-22 02:22:00,45.3,41.0,29.88,ESE,115,0.0,-999.0,84,-99.99,,,0.00,weatherlink.com 1.10,2013-10-22 06:22:00,
2013-10-22 02:37:00,45.0,41.0,29.87,ESE,115,0.0,-999.0,86,-99.99,,,0.00,weatherlink.com 1.10,2013-10-22 06:37:00,
2013-10-22 02:52:00,45.0,41.0,29.86,ESE,115,0.0,-999.0,87,-99.99,,,0.00,weatherlink.com 1.10,2013-10-22 06:52:00,
2013-10-22 03:07:00,45.2,42.0,29.87,ESE,115,0.0,-999.0,88,-99.99,,,0.00,weatherlink.com 1.10,2013-10-22 07:07:00,
2013-10-22 03:22:00,45.4,42.0,29.86,ESE,115,0.0,-999.0,88,-99.99,,,0.00,weatherlink.com 1.10,2013-10-22 07:22:00,
2013-10-22 03:37:00,45.6,42.0,29.85,ESE,115,0.0,-999.0,88,-99.99,,,0.00,weatherlink.com 1.10,2013-10-22 07:37:00,
2013-10-22 03:52:00,45.9,43.0,29.85,ESE,115,0.0,-999.0,89,-99.99,,,0.00,weatherlink.com 1.10,2013-10-22 07:52:00,
2013-10-22 04:07:00,46.1,43.0,29.84,ESE,115,0.0,-999.0,89,-99.99,,,0.00,weatherlink.com 1.10,2013-10-22 08:07:00,
2013-10-22 04:22:00,46.3,43.0,29.84,ESE,115,0.0,-999.0,89,-99.99,,,0.00,weatherlink.com 1.10,2013-10-22 08:22:00,
2013-10-22 04:37:00,46.6,44.0,29.84,ESE,115,0.0,-999.0,89,-99.99,,,0.00,weatherlink.com 1.10,2013-10-22 08:37:00,
2013-10-22 04:52:00,46.9,44.0,29.84,ESE,115,0.0,-999.0,89,-99.99,,,0.00,weatherlink.com 1.10,2013-10-22 08:52:00,
2013-10-22 05:07:00,47.1,44.0,29.83,ESE,115,0.0,-999.0,89,-99.99,,,0.00,weatherlink.com 1.10,2013-10-22 09:07:00,
2013-10-22 05:22:00,47.3,44.0,29.83,ESE,115,0.0,-999.0,89,-99.99,,,0.00,weatherlink.com 1.10,2013-10-22 09:22:00,
2013-10-22 05:37:00,47.5,45.0,29.82,ESE,115,0.0,-999.0,89,-99.99,,,0.00,weatherlink.com 1.10,2013-10-22 09:37:00,
2013-10-22 05:52:00,47.7,45.0,29.82,ESE,115,0.0,-999.0,89,-99.99,,,0.00,weatherlink.com 1.10,2013-10-22 09:52:00,
2013-10-22 06:07:00,47.8,45.0,29.82,ESE,115,0.0,-999.0,89,-99.99,,,0.00,weatherlink.com 1.10,2013-10-22 10:07:00,
2013-10-22 06:22:00,48.0,45.0,29.81,ESE,115,0.0,-999.0,89,-99.99,,,0.00,weatherlink.com 1.10,2013-10-22 10:22:00,
2013-10-22 06:37:00,48.1,45.0,29.80,ESE,115,0.0,-999.0,89,-99.99,,,0.00,weatherlink.com 1.10,2013-10-22 10:37:00,
2013-10-22 06:52:00,48.2,45.0,29.80,ESE,115,0.0,-999.0,89,-99.99,,,0.00,weatherlink.com 1.10,2013-10-22 10:52:00,
2013-10-22 07:08:00,48.3,45.0,29.80,ESE,115,0.0,-999.0,89,-99.99,,,0.00,weatherlink.com 1.10,2013-10-22 11:08:00,
2013-10-22 07:23:00,48.5,46.0,29.80,ESE,115,0.0,-999.0,89,-99.99,,,0.00,weatherlink.com 1.10,2013-10-22 11:23:00,
2013-10-22 07:38:00,48.7,45.0,29.80,ESE,115,0.0,-999.0,88,-99.99,,,0.00,weatherlink.com 1.10,2013-10-22 11:38:00,
2013-10-22 07:53:00,48.8,45.0,29.80,ESE,115,0.0,-999.0,88,-99.99,,,0.00,weatherlink.com 1.10,2013-10-22 11:53:00,
2013-10-22 08:08:00,48.9,46.0,29.81,ESE,115,0.0,-999.0,88,-99.99,,,0.00,weatherlink.com 1.10,2013-10-22 12:08:00,
2013-10-22 08:23:00,49.1,45.0,29.82,ESE,115,0.0,-999.0,87,-99.99,,,0.00,weatherlink.com 1.10,2013-10-22 12:23:00,
2013-10-22 08:38:00,49.2,46.0,29.82,ESE,115,0.0,-999.0,88,-99.99,,,0.00,weatherlink.com 1.10,2013-10-22 12:38:00,
2013-10-22 08:53:00,49.4,46.0,29.83,ESE,115,0.0,-999.0,87,-99.99,,,0.00,weatherlink.com 1.10,2013-10-22 12:53:00,
2013-10-22 09:08:00,49.7,46.0,29.83,ESE,115,0.0,-999.0,87,-99.99,,,0.00,weatherlink.com 1.10,2013-10-22 13:08:00,
2013-10-22 09:23:00,50.3,46.0,29.84,West,265,0.0,-999.0,85,-99.99,,,0.00,weatherlink.com 1.10,2013-10-22 13:23:00,
2013-10-22 09:38:00,51.0,46.0,29.84,West,268,0.0,-999.0,83,-99.99,,,0.00,weatherlink.com 1.10,2013-10-22 13:38:00,
2013-10-22 09:53:00,51.5,46.0,29.83,West,268,0.0,-999.0,82,-99.99,,,0.00,weatherlink.com 1.10,2013-10-22 13:53:00,
2013-10-22 10:08:00,52.0,46.0,29.83,West,268,0.0,-999.0,81,-99.99,,,0.00,weatherlink.com 1.10,2013-10-22 14:08:00,
2013-10-22 10:23:00,52.3,46.0,29.84,West,268,0.0,-999.0,80,-99.99,,,0.00,weatherlink.com 1.10,2013-10-22 14:23:00,
2013-10-22 10:38:00,53.2,47.0,29.83,West,268,0.0,-999.0,80,-99.99,,,0.00,weatherlink.com 1.10,2013-10-22 14:38:00,
2013-10-22 10:53:00,54.0,47.0,29.83,West,268,0.0,-999.0,78,-99.99,,,0.00,weatherlink.com 1.10,2013-10-22 14:53:00,
2013-10-22 11:08:00,54.8,47.0,29.83,WSW,256,0.0,-999.0,75,-99.99,,,0.00,weatherlink.com 1.10,2013-10-22 15:08:00,
2013-10-22 11:23:00,55.2,47.0,29.83,SSW,207,4.0,-999.0,74,-99.99,,,0.00,weatherlink.com 1.10,2013-10-22 15:23:00,
2013-10-22 11:53:00,56.5,46.0,29.82,WSW,244,5.0,-999.0,69,-99.99,,,0.00,weatherlink.com 1.10,2013-10-22 15:53:00,
2013-10-22 12:08:00,56.8,46.0,29.82,SW,216,7.0,-999.0,67,-99.99,,,0.00,weatherlink.com 1.10,2013-10-22 16:08:00,
2013-10-22 12:23:00,57.3,46.0,29.81,WNW,296,3.0,-999.0,67,-99.99,,,0.00,weatherlink.com 1.10,2013-10-22 16:23:00,
2013-10-22 12:38:00,57.7,46.0,29.81,SW,219,7.0,-999.0,65,-99.99,,,0.00,weatherlink.com 1.10,2013-10-22 16:38:00,
2013-10-22 12:53:00,58.2,45.0,29.80,SW,221,3.0,-999.0,62,-99.99,,,0.00,weatherlink.com 1.10,2013-10-22 16:53:00,
2013-10-22 13:08:00,58.4,46.0,29.80,SW,220,4.0,-999.0,64,-99.99,,,0.00,weatherlink.com 1.10,2013-10-22 17:08:00,
2013-10-22 13:23:00,58.5,40.0,29.79,NNW,336,7.0,-999.0,51,-99.99,,,0.00,weatherlink.com 1.10,2013-10-22 17:23:00,
2013-10-22 13:38:00,58.7,35.0,29.79,WNW,299,6.0,-999.0,42,-99.99,,,0.00,weatherlink.com 1.10,2013-10-22 17:38:00,
2013-10-22 13:53:00,59.0,34.0,29.79,SW,224,6.0,-999.0,39,-99.99,,,0.00,weatherlink.com 1.10,2013-10-22 17:53:00,
2013-10-22 14:08:00,58.6,35.0,29.79,WSW,248,3.0,-999.0,41,-99.99,,,0.00,weatherlink.com 1.10,2013-10-22 18:08:00,
2013-10-22 14:23:00,58.9,36.0,29.79,WSW,245,4.0,-999.0,42,-99.99,,,0.00,weatherlink.com 1.10,2013-10-22 18:23:00,
2013-10-22 14:38:00,59.2,36.0,29.79,SW,219,9.0,-999.0,42,-99.99,,,0.00,weatherlink.com 1.10,2013-10-22 18:38:00,
2013-10-22 14:53:00,59.5,36.0,29.79,WNW,288,7.0,-999.0,42,-99.99,,,0.00,weatherlink.com 1.10,2013-10-22 18:53:00,
2013-10-22 15:08:00,60.2,36.0,29.78,West,279,2.0,-999.0,41,-99.99,,,0.00,weatherlink.com 1.10,2013-10-22 19:08:00,
2013-10-22 15:23:00,59.7,35.0,29.78,SSW,213,2.0,-999.0,40,-99.99,,,0.00,weatherlink.com 1.10,2013-10-22 19:23:00,
2013-10-22 15:38:00,59.8,36.0,29.78,WSW,246,5.0,-999.0,41,-99.99,,,0.00,weatherlink.com 1.10,2013-10-22 19:38:00,
2013-10-22 15:53:00,60.0,36.0,29.78,SSW,201,6.0,-999.0,41,-99.99,,,0.00,weatherlink.com 1.10,2013-10-22 19:53:00,
2013-10-22 16:08:00,59.7,34.0,29.78,West,268,3.0,-999.0,39,-99.99,,,0.00,weatherlink.com 1.10,2013-10-22 20:08:00,
2013-10-22 16:24:00,59.9,36.0,29.79,WNW,290,2.0,-999.0,41,-99.99,,,0.00,weatherlink.com 1.10,2013-10-22 20:24:00,
2013-10-22 16:38:00,59.7,34.0,29.79,SW,234,3.0,-999.0,39,-99.99,,,0.00,weatherlink.com 1.10,2013-10-22 20:38:00,
2013-10-22 16:53:00,59.2,34.0,29.79,WNW,292,4.0,-999.0,39,-99.99,,,0.00,weatherlink.com 1.10,2013-10-22 20:53:00,
2013-10-22 17:08:00,59.0,34.0,29.80,West,273,2.0,-999.0,39,-99.99,,,0.00,weatherlink.com 1.10,2013-10-22 21:08:00,
2013-10-22 17:23:00,58.2,34.0,29.80,West,269,2.0,-999.0,40,-99.99,,,0.00,weatherlink.com 1.10,2013-10-22 21:23:00,
2013-10-22 17:38:00,57.5,33.0,29.80,WSW,242,3.0,-999.0,39,-99.99,,,0.00,weatherlink.com 1.10,2013-10-22 21:38:00,
2013-10-22 17:53:00,56.5,32.0,29.81,WSW,241,0.0,-999.0,40,-99.99,,,0.00,weatherlink.com 1.10,2013-10-22 21:53:00,
2013-10-22 18:08:00,55.5,33.0,29.81,SW,219,2.0,-999.0,42,-99.99,,,0.00,weatherlink.com 1.10,2013-10-22 22:08:00,
2013-10-22 18:23:00,54.3,33.0,29.81,West,277,2.0,-999.0,44,-99.99,,,0.00,weatherlink.com 1.10,2013-10-22 22:23:00,
2013-10-22 18:38:00,53.4,33.0,29.82,WSW,258,0.0,-999.0,46,-99.99,,,0.00,weatherlink.com 1.10,2013-10-22 22:38:00,
2013-10-22 18:53:00,52.6,34.0,29.82,WSW,258,0.0,-999.0,49,-99.99,,,0.00,weatherlink.com 1.10,2013-10-22 22:53:00,
2013-10-22 19:08:00,51.3,34.0,29.82,WSW,258,0.0,-999.0,52,-99.99,,,0.00,weatherlink.com 1.10,2013-10-22 23:08:00,
2013-10-22 19:23:00,48.9,33.0,29.82,WSW,258,0.0,-999.0,54,-99.99,,,0.00,weatherlink.com 1.10,2013-10-22 23:23:00,
2013-10-22 19:38:00,47.0,33.0,29.82,WSW,258,0.0,-999.0,58,-99.99,,,0.00,weatherlink.com 1.10,2013-10-22 23:38:00,
2013-10-22 19:53:00,45.9,33.0,29.82,WSW,258,0.0,-999.0,61,-99.99,,,0.00,weatherlink.com 1.10,2013-10-22 23:53:00,
2013-10-22 20:08:00,44.4,33.0,29.82,WSW,258,0.0,-999.0,65,-99.99,,,0.00,weatherlink.com 1.10,2013-10-23 00:08:00,
2013-10-22 20:23:00,43.5,34.0,29.83,WSW,258,0.0,-999.0,69,-99.99,,,0.00,weatherlink.com 1.10,2013-10-23 00:23:00,
2013-10-22 20:39:00,42.4,34.0,29.83,WSW,258,0.0,-999.0,72,-99.99,,,0.00,weatherlink.com 1.10,2013-10-23 00:39:00,
2013-10-22 20:54:00,41.7,33.0,29.83,WSW,258,0.0,-999.0,72,-99.99,,,0.00,weatherlink.com 1.10,2013-10-23 00:54:00,
2013-10-22 21:09:00,40.9,33.0,29.84,WSW,258,0.0,-999.0,74,-99.99,,,0.00,weatherlink.com 1.10,2013-10-23 01:09:00,
2013-10-22 21:24:00,40.2,33.0,29.85,WSW,258,0.0,-999.0,76,-99.99,,,0.00,weatherlink.com 1.10,2013-10-23 01:24:00,
2013-10-22 21:39:00,39.7,33.0,29.86,WSW,258,0.0,-999.0,78,-99.99,,,0.00,weatherlink.com 1.10,2013-10-23 01:39:00,
2013-10-22 21:54:00,39.3,33.0,29.86,WSW,258,0.0,-999.0,79,-99.99,,,0.00,weatherlink.com 1.10,2013-10-23 01:54:00,
2013-10-22 22:09:00,39.0,33.0,29.87,WSW,258,0.0,-999.0,80,-99.99,,,0.00,weatherlink.com 1.10,2013-10-23 02:09:00,
2013-10-22 22:24:00,38.9,34.0,29.86,WSW,258,0.0,-999.0,81,-99.99,,,0.00,weatherlink.com 1.10,2013-10-23 02:24:00,
2013-10-22 22:39:00,38.7,33.0,29.87,WSW,258,0.0,-999.0,81,-99.99,,,0.00,weatherlink.com 1.10,2013-10-23 02:39:00,
2013-10-22 22:54:00,38.4,33.0,29.86,WSW,258,0.0,-999.0,82,-99.99,,,0.00,weatherlink.com 1.10,2013-10-23 02:54:00,
2013-10-22 23:09:00,38.2,33.0,29.86,WSW,258,0.0,-999.0,82,-99.99,,,0.00,weatherlink.com 1.10,2013-10-23 03:09:00,
2013-10-22 23:24:00,37.8,33.0,29.85,WSW,258,0.0,-999.0,83,-99.99,,,0.00,weatherlink.com 1.10,2013-10-23 03:24:00,
2013-10-22 23:39:00,37.5,33.0,29.85,WSW,258,0.0,-999.0,84,-99.99,,,0.00,weatherlink.com 1.10,2013-10-23 03:39:00,
2013-10-22 23:54:00,37.4,33.0,29.84,WSW,258,0.0,-999.0,84,-99.99,,,0.00,weatherlink.com 1.10,2013-10-23 03:54:00,